Location: *
(43.2048°N, 0.1612°E)
Time: 17:50:09
(UTC+00:00)

Meteor 1-14 Rocket - Pass Details

Date: 30 September 2023
Orbit: 833 x 919 km, 81.3° (Epoch: 04 December)

Event Time Altitude Azimuth Distance (km) Brightness Sun altitude
Rises 03:39:22 0° 350° (N) 3,566 7.6 -25.1°
Reaches altitude 10° 03:41:51 10° 351° (N) 2,622 6.9 -24.6°
Maximum altitude 03:47:53 85° 80° (E) 928 4.3 -23.6°
Drops below altitude 10° 03:53:50 10° 169° (S) 2,593 6.6 -22.6°
Sets 03:56:17 0° 170° (S) 3,523 7.3 -22.2°
